Location: Auttagershofen
(48.1940°N, 10.0237°E)
Time: 13:46:21
(UTC+00:00)

NOAA 12 - Visible Passes

Search period start: 19 April 2026 00:00
Search period end: 29 April 2026 00:00
Orbit: 793 x 812 km, 98.6° (Epoch: 19 April)

Date Brightness Start Highest point End Pass type
(mag) Time Alt. Az. Time Alt. Az. Time Alt. Az.
20 Apr 6.2 03:40:31 10° NNE 03:45:08 30° E 03:49:42 10° SSE visible
21 Apr 6.8 03:15:22 10° NE 03:19:00 19° E 03:22:37 10° SE visible
22 Apr 7.2 02:51:25 10° ENE 02:52:46 11° E 02:54:06 10° E visible
24 Apr 6.3 03:36:56 10° NE 03:41:26 28° E 03:45:53 10° SSE visible
25 Apr 6.8 03:11:51 10° NE 03:15:17 17° E 03:18:41 10° SE visible
